FW6831 Weather Reports


Display with metric or nautical units.
time (UTC)temp
F
wind
direction
speed
MPH
gust
MPH
rain 1hr
in
rain 24hr
in
rain mn
in
humidity
%
barometer
mb
20260510123545 61 0 0.0 0.0 0.00 0.00 0.00 88 1028.0
20260510123057 61 0 0.0 0.0 0.00 0.00 0.00 89 1028.1
20260510122544 61 0 0.0 0.0 0.00 0.00 0.00 88 1027.9
20260510122044 61 0 0.0 0.0 0.00 0.00 0.00 89 1027.9
20260510121552 61 0 0.0 0.0 0.00 0.00 0.00 88 1028.0
20260510121045 61 0 0.0 0.0 0.00 0.00 0.00 88 1028.1
20260510120548 61 0 0.0 0.0 0.00 0.00 0.00 88 1028.1
20260510120051 62 0 0.0 0.0 0.00 0.00 0.00 89 1028.2
20260510115544 62 0 0.0 0.0 0.00 0.00 0.00 88 1028.2
20260510115044 62 0 0.0 0.0 0.00 0.00 0.00 88 1028.1
20260510114555 62 0 0.0 0.0 0.00 0.00 0.00 88 1028.3
20260510114044 62 0 0.0 0.0 0.00 0.00 0.00 89 1028.4
20260510113543 62 0 0.0 0.0 0.00 0.00 0.00 89 1028.5
20260510113051 62 0 0.0 0.0 0.00 0.00 0.00 89 1028.6
20260510112548 62 0 0.0 0.0 0.00 0.00 0.00 89 1028.6
20260510112043 62 0 0.0 0.0 0.00 0.00 0.00 89 1028.4
20260510111603 62 0 0.0 0.0 0.00 0.00 0.00 89 1028.3
20260510111043 62 0 0.0 0.0 0.00 0.00 0.00 89 1028.4
20260510110544 62 0 0.0 0.0 0.00 0.00 0.00 89 1028.5
20260510110057 62 0 0.0 0.0 0.00 0.00 0.00 89 1028.4
20260510105548 62 0 0.0 0.0 0.00 0.00 0.00 89 1028.4
20260510105049 62 0 0.0 0.0 0.00 0.00 0.00 89 1028.2
20260510104553 62 0 0.0 0.0 0.00 0.00 0.00 89 1028.2
20260510104044 62 0 0.0 0.0 0.00 0.00 0.00 89 1028.0
20260510103546 62 0 0.0 0.0 0.00 0.00 0.00 89 1027.9
20260510103054 62 0 0.0 0.0 0.00 0.00 0.00 89 1027.9
20260510102546 62 0 0.0 0.0 0.00 0.00 0.00 89 1027.9
20260510102047 62 0 0.0 0.0 0.00 0.00 0.00 89 1027.8
20260510101550 61 0 0.0 0.0 0.00 0.00 0.00 88 1027.8
20260510101045 61 0 0.0 0.0 0.00 0.00 0.00 88 1027.6
20260510100544 62 0 0.0 0.0 0.00 0.00 0.00 88 1027.6
20260510100054 62 0 0.0 0.0 0.00 0.00 0.00 88 1027.5
20260510095544 62 0 0.0 0.0 0.00 0.00 0.00 87 1027.5
20260510095043 62 0 0.0 0.0 0.00 0.00 0.00 87 1027.4
20260510094559 63 0 0.0 0.0 0.00 0.00 0.00 86 1027.5
20260510094043 63 0 0.0 0.0 0.00 0.00 0.00 86 1027.4
20260510093543 63 0 0.0 0.0 0.00 0.00 0.00 85 1027.3
20260510093111 64 0 0.0 0.0 0.00 0.00 0.00 84 1027.2
20260510092544 64 0 0.0 0.0 0.00 0.00 0.00 84 1027.0
20260510092046 64 0 0.0 0.0 0.00 0.00 0.00 84 1026.9
20260510091557 64 0 0.0 0.0 0.00 0.00 0.00 84 1026.9
20260510091044 64 0 0.0 0.0 0.00 0.00 0.00 83 1026.9
20260510090545 64 0 0.0 0.0 0.00 0.00 0.00 83 1027.0
20260510090055 65 0 0.0 0.0 0.00 0.00 0.00 82 1027.0
20260510085544 65 0 0.0 0.0 0.00 0.00 0.00 82 1027.0
20260510085047 65 0 0.0 0.0 0.00 0.00 0.00 81 1027.1
20260510084552 65 0 0.0 0.0 0.00 0.00 0.00 81 1027.0
20260510084044 66 0 0.0 0.0 0.00 0.00 0.00 81 1027.0
20260510083544 66 0 0.0 0.0 0.00 0.00 0.00 80 1027.0
20260510083143 67 0 0.0 0.0 0.00 0.00 0.00 79 1027.0
20260510082543 67 0 0.0 0.0 0.00 0.00 0.00 78 1026.9
20260510082043 68 0 0.0 0.0 0.00 0.00 0.00 77 1026.9
20260510081555 68 0 0.0 1.0 0.00 0.00 0.00 77 1026.6
20260510081044 68 0 0.0 1.0 0.00 0.00 0.00 77 1026.5
20260510080545 68 0 0.0 1.0 0.00 0.00 0.00 76 1026.6
20260510080056 68 0 0.0 1.0 0.00 0.00 0.00 76 1026.6
20260510075544 69 0 0.0 1.0 0.00 0.00 0.00 75 1026.6
20260510075044 69 109 0.0 2.0 0.00 0.00 0.00 75 1026.5
20260510074602 69 0 0.0 2.0 0.00 0.00 0.00 75 1026.5
20260510074043 69 110 0.0 3.0 0.00 0.00 0.00 74 1026.6
20260510073544 69 0 0.0 6.0 0.00 0.00 0.00 74 1026.4
20260510073057 69 0 2.0 6.0 0.00 0.00 0.00 74 1026.5
20260510072544 69 0 0.0 3.0 0.00 0.00 0.00 74 1026.3
20260510072046 70 139 0.0 3.0 0.00 0.00 0.00 73 1026.1
20260510071553 70 0 1.0 3.0 0.00 0.00 0.00 73 1026.1
20260510071043 70 160 0.0 7.0 0.00 0.00 0.00 73 1026.2
20260510070544 70 184 2.0 7.0 0.00 0.00 0.00 73 1026.0
20260510070053 70 174 2.0 7.0 0.00 0.00 0.00 73 1026.0
20260510065549 70 0 2.0 8.0 0.00 0.00 0.00 73 1026.1
20260510065044 71 0 3.0 8.0 0.00 0.00 0.00 73 1026.0
20260510064559 71 116 2.0 7.0 0.00 0.00 0.00 72 1025.9
20260510064044 71 186 2.0 8.0 0.00 0.00 0.00 73 1025.7
20260510063544 71 149 2.0 8.0 0.00 0.00 0.00 73 1025.6
20260510063049 72 210 0.0 8.0 0.00 0.00 0.00 72 1025.5
20260510062544 72 0 0.0 6.0 0.00 0.00 0.00 72 1025.4
20260510062044 72 168 1.0 6.0 0.00 0.00 0.00 72 1025.4
20260510061555 72 201 0.0 4.0 0.00 0.00 0.00 71 1025.4
20260510061043 72 0 0.0 5.0 0.00 0.00 0.00 71 1025.3
20260510060544 72 0 1.0 5.0 0.00 0.00 0.00 70 1025.2
20260510060052 72 126 0.0 4.0 0.00 0.00 0.00 70 1025.1
20260510055543 73 0 0.0 8.0 0.00 0.00 0.00 70 1025.0
20260510055044 73 0 0.0 8.0 0.00 0.00 0.00 70 1025.1
20260510054554 73 0 1.0 8.0 0.00 0.00 0.00 70 1025.0
20260510054044 73 0 0.0 5.0 0.00 0.00 0.00 69 1025.0
20260510053544 73 0 0.0 4.0 0.00 0.00 0.00 69 1025.1
20260510053055 73 165 0.0 3.0 0.00 0.00 0.00 69 1025.0
20260510052547 73 188 0.0 5.0 0.00 0.00 0.00 69 1024.8
20260510052044 73 136 0.0 8.0 0.00 0.00 0.00 68 1024.9
20260510051600 73 172 2.0 8.0 0.00 0.00 0.00 68 1024.9
20260510051044 74 141 1.0 9.0 0.00 0.00 0.00 67 1024.9
20260510050544 74 69 0.0 9.0 0.00 0.00 0.00 68 1025.0
20260510050054 74 106 0.0 7.0 0.00 0.00 0.00 68 1024.9
20260510045544 74 0 0.0 7.0 0.00 0.00 0.00 67 1025.0
20260510045044 74 0 1.0 7.0 0.00 0.00 0.00 67 1025.0
20260510044601 74 79 0.0 5.0 0.00 0.00 0.00 67 1025.0
20260510044043 74 0 0.0 6.0 0.00 0.00 0.00 67 1025.1
20260510043543 74 0 1.0 6.0 0.00 0.00 0.00 67 1025.0
20260510043048 74 0 0.0 7.0 0.00 0.00 0.00 68 1025.1
20260510042547 74 0 1.0 7.0 0.00 0.00 0.00 68 1024.9
20260510042046 74 0 0.0 7.0 0.00 0.00 0.00 68 1024.9
20260510041551 74 0 1.0 9.0 0.00 0.00 0.00 66 1025.0
20260510041043 74 136 1.0 9.0 0.00 0.00 0.00 66 1025.1
20260510040544 75 188 2.0 9.0 0.00 0.00 0.00 64 1025.0
20260510040052 75 0 0.0 2.0 0.00 0.00 0.00 67 1024.9
20260510035544 75 0 0.0 2.0 0.00 0.00 0.00 66 1025.0
20260510035047 75 98 0.0 3.0 0.00 0.00 0.00 66 1025.0
20260510034553 75 125 0.0 7.0 0.00 0.00 0.00 66 1025.0
20260510034044 75 0 0.0 7.0 0.00 0.00 0.00 66 1024.9
20260510033543 74 92 0.0 5.0 0.00 0.00 0.00 66 1024.9
20260510033058 74 0 0.0 9.0 0.00 0.00 0.00 66 1025.0
20260510032545 74 0 1.0 9.0 0.00 0.00 0.00 66 1025.1
20260510032043 75 184 0.0 4.0 0.00 0.00 0.00 67 1024.9
20260510031551 75 0 0.0 6.0 0.00 0.00 0.00 67 1024.9
20260510031045 75 159 0.0 6.0 0.00 0.00 0.00 67 1025.1
20260510030544 75 0 1.0 6.0 0.00 0.00 0.00 68 1025.0
20260510030059 75 0 0.0 4.0 0.00 0.00 0.00 69 1025.1
20260510025543 74 0 0.0 4.0 0.00 0.00 0.00 69 1025.1
20260510025043 74 180 0.0 4.0 0.00 0.00 0.00 69 1025.2
20260510024547 74 0 1.0 6.0 0.00 0.00 0.00 68 1025.3
20260510024042 74 182 1.0 6.0 0.00 0.00 0.00 69 1025.3
20260510023543 75 213 0.0 7.0 0.00 0.00 0.00 69 1025.3
20260510023050 74 195 1.0 7.0 0.00 0.00 0.00 68 1025.3
20260510022547 74 14 2.0 7.0 0.00 0.00 0.00 68 1025.2
20260510022044 74 0 1.0 5.0 0.00 0.00 0.00 68 1025.3
20260510021548 74 157 0.0 4.0 0.00 0.00 0.00 69 1025.4
20260510021043 74 176 0.0 4.0 0.00 0.00 0.00 68 1025.5
20260510020543 73 0 0.0 5.0 0.00 0.00 0.00 69 1025.5
20260510020056 73 0 0.0 5.0 0.00 0.00 0.00 69 1025.7
20260510015545 73 0 0.0 6.0 0.00 0.00 0.00 70 1025.7
20260510015043 73 179 0.0 6.0 0.00 0.00 0.00 70 1025.8
20260510014553 73 185 0.0 3.0 0.00 0.00 0.00 69 1025.9
20260510014044 73 0 0.0 2.0 0.00 0.00 0.00 69 1026.1
20260510013543 72 0 0.0 3.0 0.00 0.00 0.00 71 1026.3
20260510013051 72 0 0.0 3.0 0.00 0.00 0.00 71 1026.4
20260510012546 71 0 0.0 4.0 0.00 0.00 0.00 72 1026.6
20260510012045 71 0 0.0 4.0 0.00 0.00 0.00 72 1026.8
20260510011552 71 0 0.0 1.0 0.00 0.00 0.00 71 1026.6
20260510011044 71 0 0.0 1.0 0.00 0.00 0.00 72 1026.8
20260510010547 71 0 0.0 1.0 0.00 0.00 0.00 72 1026.9
20260510010051 71 0 0.0 1.0 0.00 0.00 0.00 72 1026.8
20260510005544 71 0 0.0 1.0 0.00 0.00 0.00 71 1026.8
20260510005043 71 0 0.0 1.0 0.00 0.00 0.00 70 1026.8
20260510004550 71 0 0.0 1.0 0.00 0.00 0.00 71 1027.0
20260510004043 71 0 0.0 0.0 0.00 0.00 0.00 72 1026.9
20260510003543 71 0 0.0 0.0 0.00 0.00 0.00 70 1026.9
20260510003051 71 0 0.0 0.0 0.00 0.00 0.00 72 1027.0
20260510002544 69 0 0.0 0.0 0.00 0.00 0.00 73 1027.2
20260510002041 70 0 0.0 0.0 0.00 0.00 0.00 72 1027.0
20260510001550 69 0 0.0 1.0 0.00 0.00 0.00 74 1027.1
20260510001043 69 0 0.0 1.0 0.00 0.00 0.00 74 1027.0
20260510000542 68 0 0.0 0.0 0.00 0.00 0.00 74 1027.1
20260510000049 68 0 0.0 0.0 0.00 0.00 0.00 74 1027.2
20260509235543 68 0 0.0 0.0 0.00 0.00 0.00 74 1027.3
20260509235043 68 0 0.0 2.0 0.00 0.00 0.00 74 1027.4
20260509234550 68 0 0.0 2.0 0.00 0.00 0.00 73 1027.3
20260509234044 69 0 0.0 0.0 0.00 0.00 0.00 73 1027.3
20260509233546 69 0 0.0 0.0 0.00 0.00 0.00 73 1027.2
20260509233051 68 0 0.0 0.0 0.00 0.00 0.00 75 1027.4
20260509232547 67 0 0.0 0.0 0.00 0.00 0.00 77 1027.3
20260509232042 67 0 0.0 0.0 0.00 0.00 0.00 76 1027.4
20260509231549 67 0 0.0 0.0 0.00 0.00 0.00 74 1027.4
20260509231043 67 0 0.0 0.0 0.00 0.00 0.00 75 1027.3
20260509230543 66 0 0.0 0.0 0.00 0.00 0.00 77 1027.1
20260509230057 66 0 0.0 0.0 0.00 0.00 0.00 76 1027.0
20260509225544 66 0 0.0 0.0 0.00 0.00 0.00 77 1026.9
20260509225048 65 0 0.0 0.0 0.00 0.00 0.00 78 1026.9
20260509224555 64 0 0.0 0.0 0.00 0.00 0.00 77 1026.9
20260509224047 65 0 0.0 0.0 0.00 0.00 0.00 76 1026.9
20260509223544 64 0 0.0 0.0 0.00 0.00 0.00 78 1026.9
20260509223054 64 0 0.0 0.0 0.00 0.00 0.00 79 1026.8
20260509222545 63 0 0.0 0.0 0.00 0.00 0.00 78 1026.8
20260509222043 64 0 0.0 0.0 0.00 0.00 0.00 77 1026.7
20260509221547 64 0 0.0 0.0 0.00 0.00 0.00 79 1026.7
20260509221043 63 0 0.0 0.0 0.00 0.00 0.00 80 1026.6
20260509220543 62 0 0.0 0.0 0.00 0.00 0.00 82 1026.4
20260509220049 62 0 0.0 0.0 0.00 0.00 0.00 85 1026.5
20260509215543 61 0 0.0 0.0 0.00 0.00 0.00 85 1026.3
20260509215043 61 0 0.0 0.0 0.00 0.00 0.00 85 1026.3
20260509214558 60 0 0.0 0.0 0.00 0.00 0.00 90 1026.3
20260509214042 58 0 0.0 0.0 0.00 0.00 0.00 92 1026.3
20260509213543 57 0 0.0 0.0 0.00 0.00 0.00 95 1026.2
20260509213104 55 0 0.0 0.0 0.00 0.00 0.00 95 1026.2
20260509212542 54 0 0.0 0.0 0.00 0.00 0.00 95 1026.1
20260509212043 53 0 0.0 0.0 0.00 0.00 0.00 95 1026.2
20260509211553 53 0 0.0 0.0 0.00 0.00 0.00 96 1026.1
20260509211044 52 0 0.0 0.0 0.00 0.00 0.00 96 1026.1
20260509210543 51 0 0.0 0.0 0.00 0.00 0.00 95 1026.1
20260509210106 51 0 0.0 0.0 0.00 0.00 0.00 95 1025.9
20260509205542 51 0 0.0 0.0 0.00 0.00 0.00 95 1025.8
20260509205042 51 0 0.0 0.0 0.00 0.00 0.00 95 1025.6
20260509204555 51 0 0.0 0.0 0.00 0.00 0.00 95 1025.6
20260509204044 51 0 0.0 0.0 0.00 0.00 0.00 95 1025.6
20260509203543 51 0 0.0 0.0 0.00 0.00 0.00 95 1025.3
20260509203054 51 0 0.0 0.0 0.00 0.00 0.00 94 1025.3
20260509202543 51 0 0.0 0.0 0.00 0.00 0.00 94 1025.2
20260509202044 51 0 0.0 0.0 0.00 0.00 0.00 94 1025.1
20260509201559 51 0 0.0 0.0 0.00 0.00 0.00 94 1025.0
20260509201045 51 0 0.0 0.0 0.00 0.00 0.00 94 1025.1
20260509200543 51 0 0.0 0.0 0.00 0.00 0.00 94 1025.0
20260509200105 51 0 0.0 0.0 0.00 0.00 0.00 94 1024.9
20260509195547 51 0 0.0 0.0 0.00 0.00 0.00 94 1024.9
20260509195050 51 0 0.0 0.0 0.00 0.00 0.00 94 1024.8
20260509194555 51 0 0.0 0.0 0.00 0.00 0.00 94 1024.9
20260509194047 51 0 0.0 0.0 0.00 0.00 0.00 94 1024.9
20260509193546 52 0 0.0 0.0 0.00 0.00 0.00 94 1024.9
20260509193055 52 0 0.0 0.0 0.00 0.00 0.00 94 1024.8
20260509192549 52 0 0.0 0.0 0.00 0.00 0.00 94 1024.9
20260509192044 52 0 0.0 0.0 0.00 0.00 0.00 94 1024.8
20260509191551 52 0 0.0 0.0 0.00 0.00 0.00 94 1024.6
20260509191045 52 0 0.0 0.0 0.00 0.00 0.00 94 1024.7
20260509190545 52 0 0.0 0.0 0.00 0.00 0.00 94 1024.6
20260509190054 52 0 0.0 0.0 0.00 0.00 0.00 94 1024.6
20260509185544 52 0 0.0 0.0 0.00 0.00 0.00 94 1024.5
20260509185045 52 0 0.0 0.0 0.00 0.00 0.00 94 1024.5
20260509184554 52 0 0.0 0.0 0.00 0.00 0.00 94 1024.5
20260509184046 52 0 0.0 0.0 0.00 0.00 0.00 95 1024.5
20260509183545 52 0 0.0 0.0 0.00 0.00 0.00 95 1024.5
20260509183053 52 0 0.0 0.0 0.00 0.00 0.00 95 1024.5
20260509182543 52 0 0.0 0.0 0.00 0.00 0.00 95 1024.5
20260509182044 52 0 0.0 0.0 0.00 0.00 0.00 95 1024.5
20260509181558 52 0 0.0 0.0 0.00 0.00 0.00 95 1024.5
20260509181045 52 0 0.0 0.0 0.00 0.00 0.00 95 1024.4
20260509180545 52 0 0.0 0.0 0.00 0.00 0.00 95 1024.5
20260509180054 52 0 0.0 0.0 0.00 0.00 0.00 95 1024.5
20260509175543 51 0 0.0 0.0 0.00 0.00 0.00 95 1024.4
20260509175043 51 0 0.0 0.0 0.00 0.00 0.00 95 1024.4
20260509174559 51 0 0.0 0.0 0.00 0.00 0.00 95 1024.4
20260509174044 51 0 0.0 0.0 0.00 0.00 0.00 94 1024.3
20260509173545 51 0 0.0 0.0 0.00 0.00 0.00 94 1024.4
20260509173056 51 0 0.0 0.0 0.00 0.00 0.00 94 1024.3
20260509172545 51 0 0.0 0.0 0.00 0.00 0.00 94 1024.3
20260509172049 51 0 0.0 0.0 0.00 0.00 0.00 94 1024.3
20260509171551 51 0 0.0 0.0 0.00 0.00 0.00 94 1024.2
20260509171044 51 0 0.0 0.0 0.00 0.00 0.00 94 1024.1
20260509170545 51 0 0.0 0.0 0.00 0.00 0.00 94 1024.2
20260509170055 51 0 0.0 0.0 0.00 0.00 0.00 94 1024.3
20260509165615 52 0 0.0 0.0 0.00 0.00 0.00 94 1024.2
20260509165043 52 0 0.0 0.0 0.00 0.00 0.00 94 1024.3
20260509164553 52 0 0.0 0.0 0.00 0.00 0.00 94 1024.4
20260509164043 52 0 0.0 0.0 0.00 0.00 0.00 94 1024.4
20260509163543 52 0 0.0 0.0 0.00 0.00 0.00 93 1024.4
20260509163054 52 0 0.0 0.0 0.00 0.00 0.00 93 1024.5
20260509162546 52 0 0.0 0.0 0.00 0.00 0.00 93 1024.4
20260509162043 52 0 0.0 0.0 0.00 0.00 0.00 93 1024.5
20260509161552 53 0 0.0 0.0 0.00 0.00 0.00 92 1024.4
20260509161044 53 0 0.0 0.0 0.00 0.00 0.00 93 1024.5
20260509160541 53 0 0.0 0.0 0.00 0.00 0.00 93 1024.4
20260509160048 53 0 0.0 0.0 0.00 0.00 0.00 93 1024.5
20260509155543 53 0 0.0 0.0 0.00 0.00 0.00 92 1024.4
20260509155043 53 0 0.0 0.0 0.00 0.00 0.00 93 1024.4
20260509154556 53 0 0.0 0.0 0.00 0.00 0.00 92 1024.5
20260509154047 53 0 0.0 0.0 0.00 0.00 0.00 92 1024.5
20260509153543 54 0 0.0 0.0 0.00 0.00 0.00 92 1024.6
20260509153102 54 0 0.0 0.0 0.00 0.00 0.00 92 1024.5
20260509152543 54 0 0.0 0.0 0.00 0.00 0.00 93 1024.7
20260509152044 54 0 0.0 0.0 0.00 0.00 0.00 93 1024.6
20260509151555 54 0 0.0 0.0 0.00 0.00 0.00 94 1024.6
20260509151041 54 0 0.0 0.0 0.00 0.00 0.00 94 1024.6
20260509150543 54 0 0.0 0.0 0.00 0.00 0.00 94 1024.7
20260509150048 54 0 0.0 0.0 0.00 0.00 0.00 94 1024.5
20260509145544 54 0 0.0 0.0 0.00 0.00 0.00 94 1024.5
20260509145043 53 0 0.0 1.0 0.00 0.00 0.00 94 1024.5
20260509144559 53 0 0.0 1.0 0.00 0.00 0.00 94 1024.6
20260509144043 53 0 0.0 1.0 0.00 0.00 0.00 94 1024.5
20260509143547 53 0 0.0 1.0 0.00 0.00 0.00 93 1024.6
20260509143054 53 319 1.0 1.0 0.00 0.00 0.00 93 1024.5
20260509142542 53 307 1.0 1.0 0.00 0.00 0.00 93 1024.5
20260509142043 54 0 0.0 0.0 0.00 0.00 0.00 94 1024.5
20260509141556 54 0 0.0 1.0 0.00 0.00 0.00 94 1024.5
20260509141044 54 0 0.0 1.0 0.00 0.00 0.00 94 1024.5
20260509140545 54 307 0.0 1.0 0.00 0.00 0.00 94 1024.4
20260509135543 53 0 0.0 1.0 0.00 0.00 0.00 94 1024.5
20260509135044 53 307 1.0 1.0 0.00 0.00 0.00 94 1024.7
20260509134558 53 307 0.0 1.0 0.00 0.00 0.00 94 1024.5
20260509134044 53 311 0.0 1.0 0.00 0.00 0.00 94 1024.6
20260509133546 53 311 1.0 1.0 0.00 0.00 0.00 93 1024.6
20260509133053 53 310 1.0 1.0 0.00 0.00 0.00 93 1024.7
20260509132544 53 311 1.0 2.0 0.00 0.00 0.00 93 1024.7
20260509132044 54 310 1.0 2.0 0.00 0.00 0.00 93 1024.8
20260509131551 54 312 1.0 1.0 0.00 0.00 0.00 93 1024.9
20260509131044 54 312 1.0 1.0 0.00 0.00 0.00 93 1024.8
20260509130545 53 312 0.0 1.0 0.00 0.00 0.00 93 1024.9
20260509130051 53 312 0.0 1.0 0.00 0.00 0.00 93 1024.9
20260509125544 53 314 1.0 1.0 0.00 0.00 0.00 92 1024.8
20260509125044 53 309 1.0 1.0 0.00 0.00 0.00 92 1024.8
20260509124546 54 308 1.0 1.0 0.00 0.00 0.00 92 1024.8
20260509124045 54 311 1.0 1.0 0.00 0.00 0.00 92 1024.8